Terug naar catalogus

CZ-6A DEB

ActiefSSO
NORAD 55523·DEBRIS·🇨🇳 China

Gelanceerd Nov 11, 2022 vanaf Taiyuan Satellite Launch Center

Loading…

Volgende Passages (komende 24 uur)

TLE

VersSource: Space-Track

Epoch: Sep 14, 2026, 00:22 UTC

1 55523U 22151XV  26257.01566499  .00003252  00000-0  14064-2 0  9992
2 55523  98.8271 268.0912 0050752  28.3979 331.9949 14.24365469192927

Volg CZ-6A DEB in realtime met AllMySat

Download on the App Store